| time (UTC) | temp F | wind direction | speed knots | gust knots | rain 1hr in | rain 24hr in | rain mn in | humidity % | barometer mb |
| 20260903163051 | 91 | 198 | 4.3 | 8.7 | 0.00 | 0.00 | 0.00 | 36 | 1010.7 |
| 20260903162550 | 90 | 172 | 3.5 | 8.7 | 0.00 | 0.00 | 0.00 | 37 | 1010.7 |
| 20260903162050 | 90 | 201 | 4.3 | 9.6 | 0.00 | 0.00 | 0.00 | 37 | 1010.7 |
| 20260903161606 | 90 | 182 | 5.2 | 9.6 | 0.00 | 0.00 | 0.00 | 38 | 1010.7 |
| 20260903161050 | 89 | 220 | 5.2 | 9.6 | 0.00 | 0.00 | 0.00 | 38 | 1010.8 |
| 20260903160547 | 89 | 227 | 6.1 | 10.4 | 0.00 | 0.00 | 0.00 | 38 | 1010.8 |
| 20260903160047 | 89 | 186 | 4.3 | 10.4 | 0.00 | 0.00 | 0.00 | 38 | 1010.8 |
| 20260903155546 | 88 | 179 | 6.1 | 11.3 | 0.00 | 0.00 | 0.00 | 39 | 1010.7 |
| 20260903155046 | 88 | 225 | 7.8 | 11.3 | 0.00 | 0.00 | 0.00 | 39 | 1010.7 |
| 20260903154547 | 88 | 239 | 6.1 | 12.2 | 0.00 | 0.00 | 0.00 | 39 | 1010.8 |
| 20260903154046 | 88 | 213 | 4.3 | 12.2 | 0.00 | 0.00 | 0.00 | 40 | 1010.7 |
| 20260903153647 | 87 | 193 | 7.0 | 10.4 | 0.00 | 0.00 | 0.00 | 41 | 1010.7 |
| 20260903153045 | 87 | 216 | 6.1 | 10.4 | 0.00 | 0.00 | 0.00 | 41 | 1010.7 |
| 20260903152548 | 87 | 204 | 5.2 | 7.8 | 0.00 | 0.00 | 0.00 | 42 | 1010.8 |
| 20260903152045 | 86 | 187 | 4.3 | 9.6 | 0.00 | 0.00 | 0.00 | 43 | 1010.8 |
| 20260903151547 | 86 | 184 | 6.1 | 10.4 | 0.00 | 0.00 | 0.00 | 43 | 1010.8 |
| 20260903151045 | 86 | 204 | 5.2 | 8.7 | 0.00 | 0.00 | 0.00 | 43 | 1010.8 |
| 20260903150545 | 85 | 204 | 3.5 | 7.8 | 0.00 | 0.00 | 0.00 | 45 | 1010.9 |
| 20260903150044 | 85 | 134 | 4.3 | 9.6 | 0.00 | 0.00 | 0.00 | 45 | 1010.9 |
| 20260903145547 | 85 | 206 | 3.5 | 7.8 | 0.00 | 0.00 | 0.00 | 46 | 1011.0 |
| 20260903145044 | 85 | 166 | 3.5 | 7.8 | 0.00 | 0.00 | 0.00 | 46 | 1011.0 |
| 20260903144544 | 84 | 198 | 4.3 | 9.6 | 0.00 | 0.00 | 0.00 | 46 | 1011.0 |
| 20260903144045 | 84 | 127 | 5.2 | 9.6 | 0.00 | 0.00 | 0.00 | 46 | 1011.0 |
| 20260903143643 | 84 | 159 | 6.1 | 11.3 | 0.00 | 0.00 | 0.00 | 48 | 1011.0 |
| 20260903143045 | 83 | 195 | 7.8 | 11.3 | 0.00 | 0.00 | 0.00 | 48 | 1010.9 |
| 20260903142544 | 83 | 192 | 7.0 | 10.4 | 0.00 | 0.00 | 0.00 | 48 | 1011.0 |
| 20260903142043 | 83 | 194 | 5.2 | 9.6 | 0.00 | 0.00 | 0.00 | 48 | 1011.0 |
| 20260903141542 | 83 | 184 | 5.2 | 9.6 | 0.00 | 0.00 | 0.00 | 48 | 1011.1 |
| 20260903141046 | 83 | 185 | 5.2 | 9.6 | 0.00 | 0.00 | 0.00 | 48 | 1011.1 |
| 20260903140544 | 83 | 206 | 4.3 | 12.2 | 0.00 | 0.00 | 0.00 | 49 | 1011.1 |
| 20260903140042 | 82 | 208 | 7.8 | 12.2 | 0.00 | 0.00 | 0.00 | 49 | 1011.0 |
| 20260903135541 | 82 | 185 | 4.3 | 8.7 | 0.00 | 0.00 | 0.00 | 49 | 1011.0 |
| 20260903135041 | 82 | 169 | 4.3 | 8.7 | 0.00 | 0.00 | 0.00 | 49 | 1011.0 |
| 20260903134544 | 82 | 177 | 5.2 | 8.7 | 0.00 | 0.00 | 0.00 | 50 | 1011.0 |
| 20260903134040 | 81 | 189 | 5.2 | 8.7 | 0.00 | 0.00 | 0.00 | 50 | 1011.0 |
| 20260903133639 | 80 | 191 | 4.3 | 8.7 | 0.00 | 0.00 | 0.00 | 50 | 1011.0 |
| 20260903133048 | 80 | 159 | 4.3 | 8.7 | 0.00 | 0.00 | 0.00 | 50 | 1011.0 |
| 20260903132538 | 80 | 173 | 3.5 | 8.7 | 0.00 | 0.00 | 0.00 | 50 | 1010.9 |
| 20260903132037 | 80 | 175 | 3.5 | 7.8 | 0.00 | 0.00 | 0.00 | 50 | 1010.7 |
| 20260903131540 | 79 | 169 | 2.6 | 6.1 | 0.00 | 0.00 | 0.00 | 50 | 1010.7 |
| 20260903131035 | 79 | 181 | 3.5 | 6.1 | 0.00 | 0.00 | 0.00 | 50 | 1010.6 |
| 20260903130536 | 78 | 159 | 3.5 | 7.0 | 0.00 | 0.00 | 0.00 | 50 | 1010.5 |
| 20260903130035 | 78 | 177 | 3.5 | 6.1 | 0.00 | 0.00 | 0.00 | 50 | 1010.5 |
| 20260903125535 | 78 | 166 | 2.6 | 4.3 | 0.00 | 0.00 | 0.00 | 50 | 1010.5 |
| 20260903125035 | 77 | 141 | 1.7 | 4.3 | 0.00 | 0.00 | 0.00 | 49 | 1010.3 |
| 20260903124553 | 77 | 133 | 1.7 | 4.3 | 0.00 | 0.00 | 0.00 | 49 | 1010.4 |
| 20260903124033 | 77 | 127 | 1.7 | 4.3 | 0.00 | 0.00 | 0.00 | 48 | 1010.4 |
| 20260903123633 | 77 | 81 | 0.9 | 2.6 | 0.00 | 0.00 | 0.00 | 47 | 1010.3 |
| 20260903123036 | 77 | 81 | 0.9 | 2.6 | 0.00 | 0.00 | 0.00 | 47 | 1010.2 |
| 20260903122535 | 77 | 81 | 0.9 | 4.3 | 0.00 | 0.00 | 0.00 | 47 | 1010.0 |
| 20260903122035 | 78 | 81 | 1.7 | 4.3 | 0.00 | 0.00 | 0.00 | 46 | 1010.0 |
| 20260903121545 | 78 | 158 | 0.9 | 3.5 | 0.00 | 0.00 | 0.00 | 46 | 1010.0 |
| 20260903121035 | 78 | 160 | 0.9 | 3.5 | 0.00 | 0.00 | 0.00 | 45 | 1010.1 |
| 20260903120532 | 78 | 160 | 1.7 | 4.3 | 0.00 | 0.00 | 0.00 | 45 | 1010.0 |
| 20260903120032 | 78 | 160 | 0.9 | 2.6 | 0.00 | 0.00 | 0.00 | 45 | 1009.9 |
| 20260903115534 | 78 | 160 | 0.9 | 4.3 | 0.00 | 0.00 | 0.00 | 44 | 1010.0 |
| 20260903115032 | 78 | 160 | 1.7 | 4.3 | 0.00 | 0.00 | 0.00 | 44 | 1009.9 |
| 20260903114533 | 78 | 160 | 0.9 | 3.5 | 0.00 | 0.00 | 0.00 | 44 | 1009.9 |
| 20260903114030 | 78 | 160 | 0.9 | 3.5 | 0.00 | 0.00 | 0.00 | 44 | 1009.8 |
| 20260903113631 | 78 | 184 | 0.9 | 3.5 | 0.00 | 0.00 | 0.00 | 43 | 1009.8 |
| 20260903113031 | 78 | 184 | 0.9 | 3.5 | 0.00 | 0.00 | 0.00 | 43 | 1009.8 |
| 20260903112529 | 78 | 184 | 1.7 | 3.5 | 0.00 | 0.00 | 0.00 | 43 | 1009.7 |
| 20260903112027 | 78 | 184 | 1.7 | 3.5 | 0.00 | 0.00 | 0.00 | 42 | 1009.8 |
| 20260903111525 | 78 | 184 | 1.7 | 4.3 | 0.00 | 0.00 | 0.00 | 42 | 1009.9 |
| 20260903111024 | 79 | 184 | 1.7 | 4.3 | 0.00 | 0.00 | 0.00 | 42 | 1010.0 |
| 20260903110523 | 79 | 186 | 1.7 | 3.5 | 0.00 | 0.00 | 0.00 | 41 | 1009.8 |
| 20260903110021 | 79 | 186 | 0.9 | 2.6 | 0.00 | 0.00 | 0.00 | 41 | 1009.8 |
| 20260903105521 | 79 | 186 | 0.9 | 2.6 | 0.00 | 0.00 | 0.00 | 41 | 1009.7 |
| 20260903105018 | 79 | 186 | 0.0 | 2.6 | 0.00 | 0.00 | 0.00 | 40 | 1009.8 |
| 20260903104524 | 80 | 186 | 0.9 | 3.5 | 0.00 | 0.00 | 0.00 | 40 | 1010.0 |
| 20260903104017 | 80 | 186 | 0.9 | 3.5 | 0.00 | 0.00 | 0.00 | 40 | 1009.9 |
| 20260903103618 | 80 | 186 | 1.7 | 5.2 | 0.00 | 0.00 | 0.00 | 39 | 1009.9 |
| 20260903103017 | 80 | 186 | 2.6 | 5.2 | 0.00 | 0.00 | 0.00 | 39 | 1009.8 |
| 20260903102516 | 80 | 185 | 2.6 | 4.3 | 0.00 | 0.00 | 0.00 | 39 | 1009.8 |
| 20260903102019 | 81 | 167 | 1.7 | 4.3 | 0.00 | 0.00 | 0.00 | 39 | 1010.0 |
| 20260903101519 | 81 | 168 | 1.7 | 5.2 | 0.00 | 0.00 | 0.00 | 38 | 1009.9 |
| 20260903101014 | 81 | 168 | 1.7 | 5.2 | 0.00 | 0.00 | 0.00 | 38 | 1009.9 |
| 20260903100513 | 81 | 160 | 1.7 | 4.3 | 0.00 | 0.00 | 0.00 | 38 | 1009.9 |
| 20260903100021 | 82 | 160 | 2.6 | 4.3 | 0.00 | 0.00 | 0.00 | 38 | 1010.0 |
| 20260903095514 | 82 | 162 | 1.7 | 5.2 | 0.00 | 0.00 | 0.00 | 38 | 1009.9 |
| 20260903095015 | 82 | 160 | 2.6 | 5.2 | 0.00 | 0.00 | 0.00 | 37 | 1010.0 |
| 20260903094513 | 82 | 160 | 2.6 | 5.2 | 0.00 | 0.00 | 0.00 | 37 | 1010.0 |
| 20260903094011 | 82 | 160 | 1.7 | 4.3 | 0.00 | 0.00 | 0.00 | 37 | 1010.1 |
| 20260903093610 | 82 | 166 | 2.6 | 4.3 | 0.00 | 0.00 | 0.00 | 38 | 1010.2 |
| 20260903093012 | 82 | 165 | 1.7 | 4.3 | 0.00 | 0.00 | 0.00 | 37 | 1010.1 |
| 20260903092510 | 82 | 166 | 2.6 | 5.2 | 0.00 | 0.00 | 0.00 | 37 | 1010.0 |
| 20260903092009 | 82 | 166 | 2.6 | 5.2 | 0.00 | 0.00 | 0.00 | 37 | 1010.1 |
| 20260903091512 | 82 | 171 | 2.6 | 5.2 | 0.00 | 0.00 | 0.00 | 37 | 1009.9 |
| 20260903091009 | 82 | 173 | 2.6 | 6.1 | 0.00 | 0.00 | 0.00 | 36 | 1010.0 |
| 20260903090508 | 82 | 164 | 2.6 | 7.0 | 0.00 | 0.00 | 0.00 | 36 | 1010.0 |
| 20260903090008 | 82 | 171 | 2.6 | 4.3 | 0.00 | 0.00 | 0.00 | 36 | 1009.9 |
| 20260903085507 | 82 | 173 | 2.6 | 5.2 | 0.00 | 0.00 | 0.00 | 36 | 1010.0 |
| 20260903085009 | 83 | 173 | 1.7 | 5.2 | 0.00 | 0.00 | 0.00 | 35 | 1010.0 |
| 20260903084505 | 83 | 166 | 2.6 | 5.2 | 0.00 | 0.00 | 0.00 | 35 | 1010.0 |
| 20260903084005 | 83 | 166 | 2.6 | 5.2 | 0.00 | 0.00 | 0.00 | 35 | 1010.1 |
| 20260903083605 | 83 | 172 | 1.7 | 4.3 | 0.00 | 0.00 | 0.00 | 35 | 1010.1 |
| 20260903083006 | 83 | 172 | 1.7 | 4.3 | 0.00 | 0.00 | 0.00 | 35 | 1010.2 |
| 20260903082504 | 83 | 172 | 2.6 | 5.2 | 0.00 | 0.00 | 0.00 | 34 | 1010.2 |
| 20260903082004 | 83 | 173 | 1.7 | 4.3 | 0.00 | 0.00 | 0.00 | 34 | 1010.2 |
| 20260903081503 | 83 | 173 | 1.7 | 4.3 | 0.00 | 0.00 | 0.00 | 34 | 1010.2 |
| 20260903081001 | 83 | 174 | 1.7 | 4.3 | 0.00 | 0.00 | 0.00 | 33 | 1010.3 |
| 20260903080501 | 84 | 175 | 2.6 | 4.3 | 0.00 | 0.00 | 0.00 | 33 | 1010.2 |
| 20260903080001 | 84 | 175 | 1.7 | 4.3 | 0.00 | 0.00 | 0.00 | 33 | 1010.3 |
| 20260903075500 | 84 | 175 | 2.6 | 5.2 | 0.00 | 0.00 | 0.00 | 33 | 1010.3 |
| 20260903075000 | 84 | 186 | 2.6 | 7.0 | 0.00 | 0.00 | 0.00 | 32 | 1010.3 |
| 20260903074500 | 84 | 187 | 3.5 | 7.8 | 0.00 | 0.00 | 0.00 | 32 | 1010.4 |
| 20260903074100 | 84 | 193 | 4.3 | 7.8 | 0.00 | 0.00 | 0.00 | 32 | 1010.5 |
| 20260903074001 | 84 | 199 | 4.3 | 7.0 | 0.00 | 0.00 | 0.00 | 32 | 1010.5 |
| 20260903073700 | 84 | 188 | 1.7 | 5.2 | 0.00 | 0.00 | 0.00 | 32 | 1010.4 |
| 20260903072559 | 84 | 188 | 2.6 | 5.2 | 0.00 | 0.00 | 0.00 | 31 | 1010.4 |
| 20260903072100 | 84 | 191 | 1.7 | 7.0 | 0.00 | 0.00 | 0.00 | 31 | 1010.4 |
| 20260903071601 | 84 | 188 | 2.6 | 4.3 | 0.00 | 0.00 | 0.00 | 31 | 1010.4 |
| 20260903071101 | 84 | 188 | 2.6 | 4.3 | 0.00 | 0.00 | 0.00 | 31 | 1010.4 |
| 20260903070602 | 84 | 187 | 1.7 | 5.2 | 0.00 | 0.00 | 0.00 | 31 | 1010.4 |
| 20260903070106 | 84 | 187 | 2.6 | 5.2 | 0.00 | 0.00 | 0.00 | 31 | 1010.6 |
| 20260903065559 | 84 | 185 | 2.6 | 5.2 | 0.00 | 0.00 | 0.00 | 31 | 1010.4 |
| 20260903065058 | 84 | 185 | 1.7 | 5.2 | 0.00 | 0.00 | 0.00 | 30 | 1010.4 |
| 20260903064601 | 84 | 185 | 2.6 | 5.2 | 0.00 | 0.00 | 0.00 | 30 | 1010.4 |
| 20260903064058 | 84 | 184 | 2.6 | 5.2 | 0.00 | 0.00 | 0.00 | 30 | 1010.4 |
| 20260903063558 | 85 | 184 | 1.7 | 3.5 | 0.00 | 0.00 | 0.00 | 30 | 1010.5 |
| 20260903062557 | 85 | 185 | 1.7 | 4.3 | 0.00 | 0.00 | 0.00 | 30 | 1010.5 |
| 20260903062055 | 85 | 185 | 1.7 | 3.5 | 0.00 | 0.00 | 0.00 | 29 | 1010.6 |
| 20260903061557 | 85 | 186 | 1.7 | 4.3 | 0.00 | 0.00 | 0.00 | 29 | 1010.5 |
| 20260903061058 | 85 | 186 | 1.7 | 4.3 | 0.00 | 0.00 | 0.00 | 29 | 1010.5 |
| 20260903060554 | 85 | 186 | 1.7 | 4.3 | 0.00 | 0.00 | 0.00 | 29 | 1010.4 |
| 20260903060054 | 86 | 187 | 1.7 | 4.3 | 0.00 | 0.00 | 0.00 | 28 | 1010.5 |
| 20260903055552 | 86 | 187 | 2.6 | 5.2 | 0.00 | 0.00 | 0.00 | 28 | 1010.4 |
| 20260903055050 | 86 | 187 | 3.5 | 5.2 | 0.00 | 0.00 | 0.00 | 28 | 1010.4 |
| 20260903054550 | 87 | 188 | 2.6 | 5.2 | 0.00 | 0.00 | 0.00 | 27 | 1010.4 |
| 20260903054048 | 87 | 189 | 2.6 | 5.2 | 0.00 | 0.00 | 0.00 | 27 | 1010.3 |
| 20260903053552 | 88 | 193 | 2.6 | 5.2 | 0.00 | 0.00 | 0.00 | 26 | 1010.3 |
| 20260903052550 | 88 | 194 | 2.6 | 5.2 | 0.00 | 0.00 | 0.00 | 26 | 1010.3 |
| 20260903052050 | 88 | 194 | 3.5 | 7.0 | 0.00 | 0.00 | 0.00 | 26 | 1010.3 |
| 20260903051546 | 88 | 194 | 3.5 | 7.0 | 0.00 | 0.00 | 0.00 | 26 | 1010.3 |
| 20260903051048 | 88 | 195 | 2.6 | 5.2 | 0.00 | 0.00 | 0.00 | 26 | 1010.2 |
| 20260903050547 | 89 | 198 | 2.6 | 5.2 | 0.00 | 0.00 | 0.00 | 26 | 1010.2 |
| 20260903050043 | 89 | 200 | 2.6 | 5.2 | 0.00 | 0.00 | 0.00 | 26 | 1010.1 |
| 20260903045543 | 89 | 201 | 2.6 | 5.2 | 0.00 | 0.00 | 0.00 | 26 | 1010.2 |
| 20260903045047 | 89 | 201 | 2.6 | 5.2 | 0.00 | 0.00 | 0.00 | 26 | 1010.1 |
| 20260903044543 | 89 | 200 | 2.6 | 5.2 | 0.00 | 0.00 | 0.00 | 26 | 1010.1 |
| 20260903044047 | 89 | 200 | 3.5 | 5.2 | 0.00 | 0.00 | 0.00 | 26 | 1010.1 |
| 20260903043542 | 89 | 187 | 2.6 | 4.3 | 0.00 | 0.00 | 0.00 | 25 | 1010.2 |
| 20260903042543 | 89 | 187 | 2.6 | 7.0 | 0.00 | 0.00 | 0.00 | 25 | 1010.1 |
| 20260903042043 | 90 | 188 | 2.6 | 7.0 | 0.00 | 0.00 | 0.00 | 25 | 1010.1 |
| 20260903041543 | 90 | 206 | 4.3 | 7.0 | 0.00 | 0.00 | 0.00 | 25 | 1010.1 |
| 20260903041042 | 89 | 201 | 3.5 | 7.0 | 0.00 | 0.00 | 0.00 | 25 | 1010.1 |
| 20260903040545 | 89 | 204 | 4.3 | 5.2 | 0.00 | 0.00 | 0.00 | 26 | 1010.1 |
| 20260903040142 | 88 | 179 | 1.7 | 4.3 | 0.00 | 0.00 | 0.00 | 26 | 1010.2 |
| 20260903035541 | 88 | 179 | 1.7 | 3.5 | 0.00 | 0.00 | 0.00 | 26 | 1010.2 |
| 20260903035041 | 88 | 179 | 0.9 | 3.5 | 0.00 | 0.00 | 0.00 | 26 | 1010.2 |
| 20260903034542 | 89 | 179 | 1.7 | 3.5 | 0.00 | 0.00 | 0.00 | 26 | 1010.2 |
| 20260903034042 | 89 | 179 | 1.7 | 3.5 | 0.00 | 0.00 | 0.00 | 26 | 1010.2 |
| 20260903033540 | 89 | 178 | 0.9 | 3.5 | 0.00 | 0.00 | 0.00 | 25 | 1010.1 |
| 20260903032542 | 90 | 179 | 1.7 | 3.5 | 0.00 | 0.00 | 0.00 | 25 | 1010.1 |
| 20260903032041 | 90 | 178 | 1.7 | 3.5 | 0.00 | 0.00 | 0.00 | 24 | 1010.0 |
| 20260903031547 | 91 | 178 | 1.7 | 4.3 | 0.00 | 0.00 | 0.00 | 24 | 1010.0 |
| 20260903031040 | 91 | 177 | 2.6 | 4.3 | 0.00 | 0.00 | 0.00 | 23 | 1009.9 |
| 20260903030542 | 91 | 175 | 1.7 | 4.3 | 0.00 | 0.00 | 0.00 | 23 | 1009.8 |
| 20260903030041 | 91 | 175 | 1.7 | 4.3 | 0.00 | 0.00 | 0.00 | 23 | 1009.8 |
| 20260903025540 | 91 | 168 | 1.7 | 4.3 | 0.00 | 0.00 | 0.00 | 24 | 1009.7 |
| 20260903025040 | 91 | 168 | 1.7 | 3.5 | 0.00 | 0.00 | 0.00 | 24 | 1009.7 |
| 20260903024540 | 91 | 168 | 1.7 | 2.6 | 0.00 | 0.00 | 0.00 | 24 | 1009.5 |
| 20260903024040 | 91 | 168 | 0.9 | 2.6 | 0.00 | 0.00 | 0.00 | 24 | 1009.6 |
| 20260903023540 | 92 | 168 | 0.9 | 2.6 | 0.00 | 0.00 | 0.00 | 23 | 1009.4 |
| 20260903022540 | 92 | 168 | 0.9 | 3.5 | 0.00 | 0.00 | 0.00 | 22 | 1009.2 |
| 20260903022043 | 93 | 168 | 1.7 | 3.5 | 0.00 | 0.00 | 0.00 | 22 | 1009.2 |
| 20260903021541 | 93 | 168 | 1.7 | 3.5 | 0.00 | 0.00 | 0.00 | 22 | 1009.1 |
| 20260903021041 | 93 | 168 | 1.7 | 3.5 | 0.00 | 0.00 | 0.00 | 21 | 1009.1 |
| 20260903020540 | 93 | 168 | 1.7 | 3.5 | 0.00 | 0.00 | 0.00 | 21 | 1009.0 |
| 20260903020049 | 93 | 168 | 1.7 | 2.6 | 0.00 | 0.00 | 0.00 | 21 | 1009.0 |
| 20260903015540 | 93 | 168 | 0.0 | 2.6 | 0.00 | 0.00 | 0.00 | 21 | 1008.9 |
| 20260903015039 | 94 | 168 | 0.0 | 2.6 | 0.00 | 0.00 | 0.00 | 21 | 1008.8 |
| 20260903014539 | 94 | 168 | 0.9 | 2.6 | 0.00 | 0.00 | 0.00 | 21 | 1008.8 |
| 20260903014045 | 94 | 168 | 1.7 | 3.5 | 0.00 | 0.00 | 0.00 | 21 | 1008.7 |
| 20260903013543 | 95 | 168 | 1.7 | 3.5 | 0.00 | 0.00 | 0.00 | 20 | 1008.6 |
| 20260903012541 | 95 | 168 | 1.7 | 3.5 | 0.00 | 0.00 | 0.00 | 19 | 1008.6 |
| 20260903012039 | 96 | 168 | 0.9 | 4.3 | 0.00 | 0.00 | 0.00 | 19 | 1008.6 |
| 20260903011539 | 96 | 168 | 1.7 | 5.2 | 0.00 | 0.00 | 0.00 | 19 | 1008.5 |
| 20260903011038 | 96 | 168 | 1.7 | 5.2 | 0.00 | 0.00 | 0.00 | 19 | 1008.5 |
| 20260903010542 | 96 | 156 | 2.6 | 7.0 | 0.00 | 0.00 | 0.00 | 19 | 1008.4 |
| 20260903010040 | 97 | 161 | 3.5 | 7.0 | 0.00 | 0.00 | 0.00 | 18 | 1008.4 |
| 20260903005538 | 97 | 176 | 2.6 | 6.1 | 0.00 | 0.00 | 0.00 | 18 | 1008.5 |
| 20260903005037 | 97 | 182 | 2.6 | 6.1 | 0.00 | 0.00 | 0.00 | 17 | 1008.5 |
| 20260903004538 | 98 | 150 | 1.7 | 5.2 | 0.00 | 0.00 | 0.00 | 17 | 1008.4 |
| 20260903004038 | 98 | 179 | 2.6 | 7.0 | 0.00 | 0.00 | 0.00 | 16 | 1008.3 |
| 20260903003539 | 98 | 166 | 2.6 | 9.6 | 0.00 | 0.00 | 0.00 | 17 | 1008.3 |
| 20260903002537 | 98 | 158 | 3.5 | 7.0 | 0.00 | 0.00 | 0.00 | 16 | 1008.4 |
| 20260903002038 | 99 | 127 | 3.5 | 7.0 | 0.00 | 0.00 | 0.00 | 16 | 1008.4 |
| 20260903001538 | 99 | 164 | 2.6 | 8.7 | 0.00 | 0.00 | 0.00 | 15 | 1008.4 |
| 20260903001040 | 99 | 171 | 3.5 | 8.7 | 0.00 | 0.00 | 0.00 | 16 | 1008.5 |
| 20260903000536 | 99 | 165 | 3.5 | 10.4 | 0.00 | 0.00 | 0.00 | 16 | 1008.5 |
| 20260903000042 | 99 | 187 | 4.3 | 10.4 | 0.00 | 0.00 | 0.00 | 15 | 1008.6 |
| 20260902235537 | 99 | 194 | 4.3 | 8.7 | 0.00 | 0.00 | 0.00 | 15 | 1008.5 |
| 20260902235037 | 100 | 148 | 2.6 | 8.7 | 0.00 | 0.00 | 0.00 | 15 | 1008.5 |
| 20260902234537 | 99 | 170 | 2.6 | 8.7 | 0.00 | 0.00 | 0.00 | 15 | 1008.4 |
| 20260902234036 | 100 | 175 | 2.6 | 5.2 | 0.00 | 0.00 | 0.00 | 15 | 1008.5 |
| 20260902233536 | 100 | 256 | 2.6 | 7.0 | 0.00 | 0.00 | 0.00 | 15 | 1008.5 |
| 20260902232535 | 100 | 224 | 1.7 | 5.2 | 0.00 | 0.00 | 0.00 | 15 | 1008.6 |
| 20260902232036 | 100 | 179 | 1.7 | 4.3 | 0.00 | 0.00 | 0.00 | 15 | 1008.7 |
| 20260902231538 | 100 | 181 | 2.6 | 5.2 | 0.00 | 0.00 | 0.00 | 15 | 1008.7 |
| 20260902231036 | 100 | 189 | 1.7 | 6.1 | 0.00 | 0.00 | 0.00 | 14 | 1008.6 |
| 20260902230537 | 100 | 200 | 1.7 | 6.1 | 0.00 | 0.00 | 0.00 | 15 | 1008.6 |
| 20260902230037 | 100 | 68 | 2.6 | 5.2 | 0.00 | 0.00 | 0.00 | 15 | 1008.7 |
| 20260902225536 | 99 | 72 | 2.6 | 5.2 | 0.00 | 0.00 | 0.00 | 15 | 1008.8 |
| 20260902225036 | 99 | 191 | 2.6 | 7.8 | 0.00 | 0.00 | 0.00 | 15 | 1008.9 |
| 20260902224538 | 100 | 117 | 4.3 | 7.8 | 0.00 | 0.00 | 0.00 | 15 | 1008.9 |
| 20260902224033 | 100 | 156 | 1.7 | 10.4 | 0.00 | 0.00 | 0.00 | 15 | 1009.0 |
| 20260902223533 | 100 | 191 | 5.2 | 10.4 | 0.00 | 0.00 | 0.00 | 15 | 1008.9 |
| 20260902222534 | 100 | 164 | 2.6 | 7.8 | 0.00 | 0.00 | 0.00 | 15 | 1008.9 |
| 20260902222032 | 100 | 189 | 4.3 | 7.0 | 0.00 | 0.00 | 0.00 | 14 | 1009.0 |
| 20260902221533 | 100 | 213 | 1.7 | 7.8 | 0.00 | 0.00 | 0.00 | 14 | 1008.8 |
| 20260902221036 | 101 | 184 | 3.5 | 7.8 | 0.00 | 0.00 | 0.00 | 14 | 1008.9 |
| 20260902220532 | 101 | 210 | 0.9 | 7.8 | 0.00 | 0.00 | 0.00 | 13 | 1008.9 |
| 20260902220032 | 101 | 195 | 5.2 | 7.8 | 0.00 | 0.00 | 0.00 | 13 | 1008.9 |
| 20260902215531 | 101 | 112 | 0.9 | 7.8 | 0.00 | 0.00 | 0.00 | 13 | 1009.0 |
| 20260902215032 | 101 | 197 | 0.9 | 8.7 | 0.00 | 0.00 | 0.00 | 13 | 1009.0 |
| 20260902214533 | 102 | 196 | 3.5 | 7.8 | 0.00 | 0.00 | 0.00 | 12 | 1009.0 |
| 20260902214030 | 103 | 100 | 2.6 | 7.0 | 0.00 | 0.00 | 0.00 | 13 | 1009.1 |
| 20260902213529 | 103 | 1 | 1.7 | 7.0 | 0.00 | 0.00 | 0.00 | 12 | 1009.2 |
| 20260902212530 | 102 | 56 | 2.6 | 4.3 | 0.00 | 0.00 | 0.00 | 13 | 1009.2 |
| 20260902212028 | 101 | 202 | 1.7 | 5.2 | 0.00 | 0.00 | 0.00 | 14 | 1009.3 |
| 20260902211527 | 99 | 202 | 0.9 | 8.7 | 0.00 | 0.00 | 0.00 | 15 | 1009.6 |
| 20260902211027 | 99 | 191 | 1.7 | 8.7 | 0.00 | 0.00 | 0.00 | 15 | 1009.6 |
| 20260902210527 | 99 | 239 | 1.7 | 9.6 | 0.00 | 0.00 | 0.00 | 16 | 1009.6 |
| 20260902210027 | 99 | 251 | 5.2 | 9.6 | 0.00 | 0.00 | 0.00 | 16 | 1009.7 |
| 20260902205526 | 100 | 175 | 4.3 | 9.6 | 0.00 | 0.00 | 0.00 | 15 | 1009.8 |
| 20260902205025 | 100 | 193 | 4.3 | 7.8 | 0.00 | 0.00 | 0.00 | 15 | 1009.9 |
| 20260902204538 | 100 | 1 | 0.9 | 5.2 | 0.00 | 0.00 | 0.00 | 14 | 1009.9 |
| 20260902204028 | 100 | 308 | 1.7 | 5.2 | 0.00 | 0.00 | 0.00 | 14 | 1009.9 |
| 20260902203528 | 99 | 241 | 0.9 | 8.7 | 0.00 | 0.00 | 0.00 | 15 | 1010.2 |
| 20260902202523 | 99 | 226 | 1.7 | 7.8 | 0.00 | 0.00 | 0.00 | 15 | 1010.4 |
| 20260902202021 | 99 | 246 | 3.5 | 8.7 | 0.00 | 0.00 | 0.00 | 16 | 1010.5 |
| 20260902201521 | 99 | 210 | 5.2 | 10.4 | 0.00 | 0.00 | 0.00 | 16 | 1010.5 |
| 20260902201020 | 99 | 220 | 7.0 | 11.3 | 0.00 | 0.00 | 0.00 | 17 | 1010.5 |
| 20260902200521 | 99 | 196 | 6.1 | 11.3 | 0.00 | 0.00 | 0.00 | 18 | 1010.5 |
| 20260902200019 | 99 | 153 | 1.7 | 7.8 | 0.00 | 0.00 | 0.00 | 17 | 1010.6 |
| 20260902195519 | 99 | 150 | 0.9 | 7.8 | 0.00 | 0.00 | 0.00 | 17 | 1010.6 |
| 20260902195017 | 99 | 184 | 2.6 | 6.1 | 0.00 | 0.00 | 0.00 | 17 | 1010.6 |
| 20260902194517 | 98 | 15 | 1.7 | 10.4 | 0.00 | 0.00 | 0.00 | 17 | 1010.7 |
| 20260902194016 | 99 | 198 | 3.5 | 8.7 | 0.00 | 0.00 | 0.00 | 17 | 1010.8 |
| 20260902193515 | 98 | 204 | 7.0 | 13.0 | 0.00 | 0.00 | 0.00 | 18 | 1010.9 |
| 20260902192514 | 97 | 198 | 3.5 | 11.3 | 0.00 | 0.00 | 0.00 | 21 | 1011.0 |
| 20260902192013 | 97 | 117 | 6.1 | 11.3 | 0.00 | 0.00 | 0.00 | 21 | 1011.1 |
| 20260902191513 | 97 | 209 | 1.7 | 10.4 | 0.00 | 0.00 | 0.00 | 20 | 1011.2 |
| 20260902191012 | 97 | 223 | 6.1 | 10.4 | 0.00 | 0.00 | 0.00 | 20 | 1011.3 |
| 20260902190512 | 97 | 211 | 6.1 | 9.6 | 0.00 | 0.00 | 0.00 | 20 | 1011.3 |
| 20260902190011 | 96 | 170 | 2.6 | 9.6 | 0.00 | 0.00 | 0.00 | 22 | 1011.3 |
| 20260902185510 | 96 | 167 | 2.6 | 9.6 | 0.00 | 0.00 | 0.00 | 22 | 1011.5 |
| 20260902185009 | 96 | 189 | 7.0 | 11.3 | 0.00 | 0.00 | 0.00 | 22 | 1011.7 |
| 20260902184509 | 97 | 196 | 7.8 | 11.3 | 0.00 | 0.00 | 0.00 | 22 | 1011.7 |
| 20260902184008 | 96 | 65 | 3.5 | 11.3 | 0.00 | 0.00 | 0.00 | 23 | 1011.7 |
| 20260902183506 | 96 | 229 | 5.2 | 11.3 | 0.00 | 0.00 | 0.00 | 23 | 1011.8 |
| 20260902182505 | 95 | 222 | 4.3 | 10.4 | 0.00 | 0.00 | 0.00 | 24 | 1012.0 |
| 20260902182004 | 95 | 220 | 4.3 | 10.4 | 0.00 | 0.00 | 0.00 | 25 | 1012.1 |
| 20260902181503 | 95 | 234 | 4.3 | 9.6 | 0.00 | 0.00 | 0.00 | 24 | 1012.2 |
| 20260902181002 | 95 | 222 | 5.2 | 10.4 | 0.00 | 0.00 | 0.00 | 24 | 1012.3 |
| 20260902180503 | 95 | 250 | 5.2 | 10.4 | 0.00 | 0.00 | 0.00 | 25 | 1012.4 |
| 20260902180002 | 94 | 220 | 2.6 | 10.4 | 0.00 | 0.00 | 0.00 | 25 | 1012.5 |
| 20260902175600 | 94 | 205 | 6.1 | 10.4 | 0.00 | 0.00 | 0.00 | 26 | 1012.5 |
| 20260902175102 | 94 | 218 | 4.3 | 11.3 | 0.00 | 0.00 | 0.00 | 26 | 1012.5 |
| 20260902174600 | 94 | 238 | 3.5 | 10.4 | 0.00 | 0.00 | 0.00 | 27 | 1012.5 |
| 20260902174056 | 94 | 212 | 6.1 | 11.3 | 0.00 | 0.00 | 0.00 | 28 | 1012.7 |
| 20260902173555 | 93 | 200 | 6.1 | 11.3 | 0.00 | 0.00 | 0.00 | 28 | 1012.8 |
| 20260902172553 | 93 | 235 | 6.1 | 11.3 | 0.00 | 0.00 | 0.00 | 30 | 1013.1 |
| 20260902172052 | 92 | 232 | 6.1 | 11.3 | 0.00 | 0.00 | 0.00 | 30 | 1013.2 |
| 20260902171550 | 92 | 213 | 6.1 | 9.6 | 0.00 | 0.00 | 0.00 | 31 | 1013.2 |
| 20260902171050 | 91 | 243 | 3.5 | 13.0 | 0.00 | 0.00 | 0.00 | 32 | 1013.3 |
| 20260902170549 | 92 | 195 | 7.0 | 13.0 | 0.00 | 0.00 | 0.00 | 31 | 1013.4 |
| 20260902170052 | 91 | 195 | 7.0 | 10.4 | 0.00 | 0.00 | 0.00 | 32 | 1013.4 |
| 20260902165546 | 91 | 211 | 6.1 | 11.3 | 0.00 | 0.00 | 0.00 | 32 | 1013.4 |
| 20260902165045 | 91 | 214 | 6.1 | 11.3 | 0.00 | 0.00 | 0.00 | 33 | 1013.5 |
| 20260902164544 | 90 | 240 | 6.1 | 11.3 | 0.00 | 0.00 | 0.00 | 33 | 1013.5 |
| 20260902164042 | 90 | 179 | 4.3 | 9.6 | 0.00 | 0.00 | 0.00 | 35 | 1013.5 |
| 20260902163542 | 90 | 245 | 5.2 | 10.4 | 0.00 | 0.00 | 0.00 | 35 | 1013.5 |